sat.trackr.live / text

‹ back to catalog

STARLINK-3832

NORAD 52646 · 2022-052BA

PAYLOAD ACTIVE UNKNOWN

§ Identity

Operator
Country
US
Launch date
2022-05-14
Launch site
AFETR
Launch vehicle
Mass (kg)
RCS (m²)

Purposes: comms

External: N2YO · Heavens-Above · Gunter

§ Orbital elements

Epoch: 2026-05-25T02:27:26.089920Z

Period
95.44 min
Inclination
53.2140°
Eccentricity
0.0001480
Mean motion
15.08824920 rev/d
Perigee alt
538.8 km
Apogee alt
540.8 km
Semi-major
6,917.9 km
B*
-8.6819e-5
RAAN
276.1269°
Arg perigee
101.1798°
Mean anomaly
258.9361°
Rev number
22,267

§ Raw data

STARLINK-38321 52646U 22052BA  26145.10238530 -.00001669  00000+0 -86819-4 0  99932 52646  53.2140 276.1269 0001480 101.1798 258.9361 15.08824920222675

JSON: /api/v1/satellites/52646 · /tle

For live sub-satellite position, see the globe view (requires WebGL).

§ Visibility from observer

Set your observer location to see the next 7 days of passes ≥ 10°. The values pass through the URL so the page stays shareable.

No JS? Fill the form by hand. The geolocation button needs JavaScript.